Voltar ao catálogo

CZ-6A DEB

AtivoSSO
NORAD 54511·DEBRIS·🇨🇳 China

Lançado Nov 11, 2022 de Taiyuan Satellite Launch Center

Loading…

Próximas Passagens (próximas 24 horas)

TLE

AtualizadoSource: Space-Track

Época: Sep 14, 2026, 08:55 UTC

1 54511U 22151JP  26257.37160812  .00000003  00000-0  31618-4 0  9993
2 54511  98.9180 224.0739 0129719 207.4672 151.9593 13.94940230195145

Acompanhe CZ-6A DEB em tempo real com AllMySat

Download on the App Store